Location: Rounton
(54.4000°N, 1.3500°W)
Time: 07:38:31
(UTC+00:00)

Vanguard 1 Rocket - Pass Details

Date: 05 December 2021
Orbit: 651 x 4224 km, 34.3° (Epoch: 19 January)

Event Time Altitude Azimuth Distance (km) Brightness Sun altitude
Rises 09:46:45 0° 271° (W) 7,279 11.7 8.3°
Reaches altitude 10° 09:56:20 10° 248° (WSW) 6,930 11.9 9.0°
Maximum altitude 10:04:16 13° 229° (SW) 7,024 12.2 9.5°
Drops below altitude 10° 10:12:47 10° 209° (SSW) 7,422 12.6 10.0°
Sets 10:24:30 0° 186° (S) 8,282 13.5 10.7°
